DELTA 1 DEB, 2707

Orbit data source: Space-Track

DELTA 1 DEB, 2707 is space debris in SSO originally from a launch on Thu, 26 Jan 1967 UTC launched from the Air Force Western Test Range (AFWTR). Debris objects in space refer to the collection of defunct objects orbiting the Earth. Examples of debris include non-operational satellites, rocket bodies, and fragments generated from explosions, collisions, or faulty payload assembly.

Loading next visibility...
Identifier
2707, 1967-006D
Orbit
SSO
Country
Flag of USUS
Related business
Manufacturer
Unknown
Mission
Spacecraft
Bus & Motor
Unknown
Mass
Unknown
Launch date (UTC)
1967-01-26 (59 years ago)
Launch vehicle
Unknown
Launch site
Air Force Western Test Range (AFWTR)
Object type
Payload
Rocket body
Debris
Shape & HBR
Unknown shape, 0.1 m
Radar Cross Section
Small (<0.1 m²)

Expand to show TLE details & history
Last TLE update: 1 day ago

TLE from 1 day ago
0 DELTA 1 DEB
1 02707U 67006D   26105.86268046 -.00000028  00000-0  85915-4 0  9992
2 02707 101.8894  73.1905 0149239 132.1129 285.5399 12.79402959764388
Epoch: 2026-04-15T20:42Z
TLE epoch observation values (Epoch: 2026-04-15T20:42:15.591Z)
Latitude
54.31248°
Longitude
-98.35077°
Altitude
1,323.342 km
Speed
7.214 km/s
True Right ascension
03h 44m 55s
True Declination
54° 09' 41"
Sunlit
Object was in daylight at epoch
Visualization orbit readout
Latitude
Unknown
Longitude
Unknown
Altitude
Unknown
Speed
Unknown
Apparent Right ascension
Unknown
Apparent Declination
Unknown
Sunlit
N/A
Visualization observer readout
Local Sidereal Time
07:50:40
Azimuth
Unknown
Elevation
Unknown
Doppler factor
Unknown
Orbital elements
Apogee altitude
1,456.593 km
Perigee altitude
1,226.182 km
Semi-major axis
7,719.524 km
Eccentricity
0.01492
Inclination
101.8894°
RAAN
73.1905°
Arg. of periapsis
132.1129°
True anomaly
283.88422°
Mean anomaly
285.5399°
Eccentric anomaly
284.71286°
Mean motion
3.20005 °/min
Orbital period
112.5 mins
BSTAR
0.000085915
Loading maneuver chart data...
Computing Atmospheric mass density...
Loading historical data...
Loading historical data...
Loading historical data...
Loading historical data...
Loading historical data...
Loading historical data...
Loading historical data...
Other satellites on launch #6 in the year 1967 (1967-01-26 UTC)

Documentation

Showing up to 5 results
|